Time,TemperatureF,DewpointF,PressureIn,WindDirection,WindDirectionDegrees,WindSpeedMPH,WindSpeedGustMPH,Humidity,HourlyPrecipIn,Conditions,Clouds,dailyrainin,SoftwareType,DateUTC
2013-08-21 00:13:00,73.0,68.0,29.88,SSW,209,3.0,8.0,84,0.00,,,0.00,,2013-08-21 05:13:00,
2013-08-21 00:23:00,73.0,68.0,29.88,SSW,198,2.0,6.0,85,0.00,,,0.00,,2013-08-21 05:23:00,
2013-08-21 00:43:00,73.0,68.0,29.88,South,169,3.0,6.0,85,0.00,,,0.00,,2013-08-21 05:43:00,
2013-08-21 00:52:00,72.0,68.0,29.88,SSW,192,2.0,6.0,87,0.00,,,0.00,,2013-08-21 05:52:00,
2013-08-21 01:12:00,72.0,68.0,29.88,SSW,207,3.0,7.0,87,0.00,,,0.00,,2013-08-21 06:12:00,
2013-08-21 01:22:00,72.0,68.0,29.89,West,278,3.0,7.0,87,0.00,,,0.00,,2013-08-21 06:22:00,
2013-08-21 01:42:00,71.0,67.0,29.89,South,171,2.0,7.0,88,0.00,,,0.00,,2013-08-21 06:42:00,
2013-08-21 01:52:00,71.0,68.0,29.89,SSW,199,2.0,6.0,89,0.00,,,0.00,,2013-08-21 06:52:00,
2013-08-21 02:11:00,71.0,68.0,29.89,South,190,2.0,5.0,89,0.00,,,0.00,,2013-08-21 07:11:00,
2013-08-21 02:22:00,71.0,68.0,29.89,WSW,244,3.0,6.0,89,0.00,,,0.00,,2013-08-21 07:22:00,
2013-08-21 02:42:00,70.0,67.0,29.89,South,186,3.0,6.0,90,0.00,,,0.00,,2013-08-21 07:42:00,
2013-08-21 02:53:00,70.0,67.0,29.89,South,177,2.0,6.0,90,0.00,,,0.00,,2013-08-21 07:53:00,
2013-08-21 03:12:00,70.0,67.0,29.89,SSW,193,2.0,7.0,90,0.00,,,0.00,,2013-08-21 08:12:00,
2013-08-21 03:22:00,70.0,67.0,29.89,SSW,207,3.0,6.0,90,0.00,,,0.00,,2013-08-21 08:22:00,
2013-08-21 03:43:00,69.0,66.0,29.89,SW,227,2.0,6.0,91,0.00,,,0.00,,2013-08-21 08:43:00,
2013-08-21 03:53:00,69.0,66.0,29.89,West,273,2.0,5.0,91,0.00,,,0.00,,2013-08-21 08:53:00,
2013-08-21 04:11:00,69.0,66.0,29.89,West,269,2.0,5.0,91,0.00,,,0.00,,2013-08-21 09:11:00,
2013-08-21 04:22:00,68.0,65.0,29.89,West,273,1.0,4.0,91,0.00,,,0.00,,2013-08-21 09:22:00,
2013-08-21 04:43:00,68.0,66.0,29.89,SW,225,1.0,5.0,92,0.00,,,0.00,,2013-08-21 09:43:00,
2013-08-21 04:54:00,68.0,66.0,29.89,South,182,1.0,4.0,92,0.00,,,0.00,,2013-08-21 09:54:00,
2013-08-21 05:13:00,68.0,66.0,29.89,South,178,1.0,4.0,92,0.00,,,0.00,,2013-08-21 10:13:00,
2013-08-21 05:23:00,69.0,67.0,29.89,SW,223,2.0,5.0,92,0.00,,,0.00,,2013-08-21 10:23:00,
2013-08-21 05:43:00,69.0,67.0,29.89,West,274,3.0,7.0,92,0.00,,,0.00,,2013-08-21 10:43:00,
2013-08-21 05:52:00,69.0,66.0,29.89,West,262,3.0,8.0,91,0.00,,,0.00,,2013-08-21 10:52:00,
2013-08-21 06:12:00,69.0,66.0,29.89,West,267,3.0,7.0,91,0.00,,,0.00,,2013-08-21 11:12:00,
2013-08-21 06:22:00,69.0,66.0,29.89,West,273,2.0,6.0,91,0.00,,,0.00,,2013-08-21 11:22:00,
2013-08-21 06:42:00,68.0,65.0,29.90,West,280,2.0,7.0,91,0.00,,,0.00,,2013-08-21 11:42:00,
2013-08-21 06:52:00,68.0,66.0,29.91,SSW,198,2.0,6.0,92,0.00,,,0.00,,2013-08-21 11:52:00,
2013-08-21 07:12:00,68.0,66.0,29.91,South,170,1.0,5.0,92,0.00,,,0.00,,2013-08-21 12:12:00,
2013-08-21 07:22:00,68.0,66.0,29.91,SSW,192,2.0,4.0,92,0.00,,,0.00,,2013-08-21 12:22:00,
2013-08-21 07:42:00,68.0,66.0,29.92,SSW,194,0.0,2.0,92,0.00,,,0.00,,2013-08-21 12:42:00,
2013-08-21 07:52:00,68.0,66.0,29.93,SSW,195,0.0,2.0,92,0.00,,,0.00,,2013-08-21 12:52:00,
2013-08-21 08:12:00,68.0,66.0,29.93,SSW,192,0.0,2.0,93,0.00,,,0.00,,2013-08-21 13:12:00,
2013-08-21 08:21:00,68.0,66.0,29.93,SSW,197,1.0,4.0,93,0.00,,,0.00,,2013-08-21 13:21:00,
2013-08-21 08:42:00,69.0,67.0,29.93,South,188,3.0,6.0,92,0.00,,,0.00,,2013-08-21 13:42:00,
2013-08-21 08:52:00,70.0,67.0,29.93,West,268,2.0,6.0,91,0.00,,,0.00,,2013-08-21 13:52:00,
2013-08-21 09:11:00,71.0,68.0,29.93,South,188,3.0,7.0,89,0.00,,,0.00,,2013-08-21 14:11:00,
2013-08-21 09:21:00,71.0,67.0,29.93,West,278,3.0,8.0,88,0.00,,,0.00,,2013-08-21 14:21:00,
2013-08-21 09:42:00,73.0,68.0,29.93,South,171,3.0,8.0,85,0.00,,,0.00,,2013-08-21 14:42:00,
2013-08-21 09:52:00,74.0,68.0,29.93,South,190,4.0,11.0,83,0.00,,,0.00,,2013-08-21 14:52:00,
2013-08-21 10:11:00,75.0,69.0,29.93,SSW,202,4.0,10.0,81,0.00,,,0.00,,2013-08-21 15:11:00,
2013-08-21 10:22:00,76.0,69.0,29.93,WSW,240,4.0,10.0,79,0.00,,,0.00,,2013-08-21 15:22:00,
2013-08-21 10:43:00,77.0,70.0,29.93,SSE,153,4.0,13.0,78,0.00,,,0.00,,2013-08-21 15:43:00,
2013-08-21 10:55:00,78.0,70.0,29.92,West,280,5.0,12.0,76,0.00,,,0.00,,2013-08-21 15:55:00,
2013-08-21 11:13:00,79.0,70.0,29.92,SSW,211,4.0,12.0,74,0.00,,,0.00,,2013-08-21 16:13:00,
2013-08-21 11:24:00,80.0,71.0,29.92,SSW,201,4.0,9.0,73,0.00,,,0.00,,2013-08-21 16:24:00,
2013-08-21 11:43:00,80.0,70.0,29.92,South,190,6.0,11.0,71,0.00,,,0.00,,2013-08-21 16:43:00,
2013-08-21 11:53:00,81.0,71.0,29.92,WSW,238,5.0,12.0,72,0.00,,,0.00,,2013-08-21 16:53:00,
2013-08-21 12:13:00,81.0,70.0,29.91,WSW,253,7.0,14.0,70,0.00,,,0.00,,2013-08-21 17:13:00,
2013-08-21 12:23:00,82.0,71.0,29.91,SSW,194,5.0,9.0,70,0.00,,,0.00,,2013-08-21 17:23:00,
2013-08-21 12:43:00,83.0,72.0,29.91,West,271,6.0,12.0,69,0.00,,,0.00,,2013-08-21 17:43:00,
2013-08-21 12:53:00,83.0,72.0,29.91,WSW,244,5.0,11.0,69,0.00,,,0.00,,2013-08-21 17:53:00,
2013-08-21 13:12:00,84.0,73.0,29.91,SSW,202,4.0,10.0,70,0.00,,,0.00,,2013-08-21 18:12:00,
2013-08-21 13:22:00,84.0,71.0,29.91,South,188,5.0,10.0,66,0.00,,,0.00,,2013-08-21 18:22:00,
2013-08-21 13:42:00,85.0,73.0,29.91,WSW,244,6.0,10.0,68,0.00,,,0.00,,2013-08-21 18:42:00,
2013-08-21 13:52:00,85.0,72.0,29.91,South,170,5.0,10.0,66,0.00,,,0.00,,2013-08-21 18:52:00,
2013-08-21 14:12:00,86.0,75.0,29.90,SSW,205,4.0,9.0,69,0.00,,,0.00,,2013-08-21 19:12:00,
2013-08-21 14:22:00,86.0,72.0,29.90,SSW,200,6.0,10.0,64,0.00,,,0.00,,2013-08-21 19:22:00,
2013-08-21 14:52:00,87.0,75.0,29.89,SSW,193,4.0,10.0,67,0.00,,,0.00,,2013-08-21 19:52:00,
2013-08-21 15:11:00,88.0,75.0,29.89,West,271,4.0,9.0,65,0.00,,,0.00,,2013-08-21 20:11:00,
2013-08-21 15:22:00,88.0,74.0,29.89,SSW,199,4.0,10.0,63,0.00,,,0.00,,2013-08-21 20:22:00,
2013-08-21 15:52:00,88.0,74.0,29.88,SSW,212,5.0,12.0,64,0.00,,,0.00,,2013-08-21 20:52:00,
2013-08-21 16:12:00,88.0,74.0,29.88,SSW,192,5.0,11.0,63,0.00,,,0.00,,2013-08-21 21:12:00,
2013-08-21 16:21:00,88.0,75.0,29.87,SSW,213,4.0,7.0,66,0.00,,,0.00,,2013-08-21 21:21:00,
2013-08-21 16:55:00,88.0,74.0,29.87,SSE,157,5.0,9.0,64,0.00,,,0.00,,2013-08-21 21:55:00,
2013-08-21 17:14:00,88.0,74.0,29.86,West,268,5.0,9.0,64,0.00,,,0.00,,2013-08-21 22:14:00,
2013-08-21 17:24:00,88.0,74.0,29.86,SW,219,6.0,11.0,64,0.00,,,0.00,,2013-08-21 22:24:00,
2013-08-21 17:53:00,88.0,75.0,29.86,South,169,5.0,9.0,65,0.00,,,0.00,,2013-08-21 22:53:00,
2013-08-21 18:12:00,88.0,76.0,29.85,SSW,199,3.0,9.0,67,0.00,,,0.00,,2013-08-21 23:12:00,
2013-08-21 18:22:00,87.0,74.0,29.86,SSW,196,4.0,7.0,66,0.00,,,0.00,,2013-08-21 23:22:00,
2013-08-21 18:53:00,86.0,74.0,29.86,South,172,3.0,7.0,67,0.00,,,0.00,,2013-08-21 23:53:00,
2013-08-21 19:12:00,86.0,74.0,29.86,South,182,3.0,7.0,67,0.00,,,0.00,,2013-08-22 00:12:00,
2013-08-21 19:22:00,86.0,74.0,29.85,SSW,206,3.0,7.0,68,0.00,,,0.00,,2013-08-22 00:22:00,
2013-08-21 21:12:00,76.0,72.0,29.86,South,175,3.0,4.0,87,0.00,,,0.00,,2013-08-22 02:12:00,
2013-08-21 21:22:00,75.0,71.0,29.86,South,178,3.0,5.0,87,0.00,,,0.00,,2013-08-22 02:22:00,
2013-08-21 22:12:00,74.0,70.0,29.89,South,183,3.0,5.0,87,0.00,,,0.00,,2013-08-22 03:12:00,
2013-08-21 22:22:00,73.0,69.0,29.88,South,179,3.0,5.0,87,0.00,,,0.00,,2013-08-22 03:22:00,
2013-08-21 22:45:00,73.0,69.0,29.87,South,188,3.0,5.0,88,0.00,,,0.00,,2013-08-22 03:45:00,
2013-08-21 22:54:00,73.0,69.0,29.87,South,188,1.0,5.0,88,0.00,,,0.00,,2013-08-22 03:54:00,
2013-08-21 23:14:00,72.0,68.0,29.86,South,178,3.0,4.0,88,0.00,,,0.00,,2013-08-22 04:14:00,
2013-08-21 23:23:00,72.0,68.0,29.86,South,173,1.0,4.0,88,0.00,,,0.00,,2013-08-22 04:23:00,
2013-08-21 23:44:00,72.0,69.0,29.85,SSW,193,1.0,5.0,89,0.00,,,0.00,,2013-08-22 04:44:00,
2013-08-21 23:54:00,72.0,68.0,29.86,South,186,3.0,6.0,87,0.00,,,0.00,,2013-08-22 04:54:00,